Home > Weather > Kufstein > Past weeks

Flag for Austria Weather for the Past 2 Weeks in Kufstein, Tyrol, Austria

Now
32 °F

Chilly.


Feels Like: 32 °F
Forecast: 26 / 45 °F
Wind: 2 mph from West

Location: Kufstein

Current Time: Feb 11, 2016 at 10:33:46 AM

Latest Report: Feb 11, 2016 at 9:00 AM


Visibility: N/A

Pressure: 29.87 "Hg

Humidity: 85%

Dew point: 28 °F

Location of KufsteinLocation

Historic Weather in Kufstein — Graph

°F

Kufstein Temperature Yesterday

Maximum temperature yesterday: 36 °F (at 4:00 PM)
Minimum temperature yesterday: 33 °F (at 9:00 AM)
Average temperature yesterday: 34 °F

High & Low Weather Summary for the Past Weeks

 TemperatureHumidityPressure
High58 °F (Feb 9, 5:00 PM)100% (Jan 30, 2:00 AM)30.53 "Hg (Jan 30, 2:00 AM)
Low29 °F (Jan 27, 9:00 AM)31% (Feb 9, 5:00 PM)29.23 "Hg (Feb 9, 9:00 PM)
Average38 °F86%30.12 "Hg
* Reported Jan 27 9:00 AM — Feb 11 9:00 AM, Kufstein, Weather by CustomWeather, © 2016

Note: Actual official high and low records may vary slightly from our data, if they occured in-between our weather recording intervals... More about our weather records

Advertising

Kufstein Weather History for the Previous 24 Hours

 ConditionsComfort  
Time TempWeatherWind HumidityBarometerVisibility
9:00 AM
Thu, Feb 11
32 °FChilly.2 mph85%29.87 "HgN/A
8:00 AM31 °FChilly.1 mph83%29.86 "HgN/A
7:00 AM32 °FChilly.2 mph76%29.84 "HgN/A
5:00 AM33 °FChilly.2 mph82%29.82 "HgN/A
4:00 AM33 °FChilly.2 mph85%29.80 "HgN/A
3:00 AM33 °FChilly.1 mph87%29.78 "HgN/A
2:00 AM31 °FChilly.1 mph94%29.78 "HgN/A
1:00 AM33 °FChilly.1 mph94%29.75 "HgN/A
11:00 PM
Wed, Feb 10
34 °FChilly.1 mph93%29.73 "HgN/A
9:00 PM33 °FFog.1 mph95%29.71 "HgN/A
8:00 PM34 °FSprinkles. Overcast.No wind95%29.70 "HgN/A
7:00 PM35 °FChilly.1 mph93%29.66 "HgN/A
6:00 PM35 °FChilly.1 mph90%29.63 "HgN/A
5:00 PM36 °FChilly.1 mph88%29.60 "HgN/A
4:00 PM36 °FChilly.1 mph88%29.58 "HgN/A
3:00 PM36 °FChilly.1 mph86%29.57 "HgN/A
2:00 PM35 °FChilly.No wind92%29.59 "HgN/A
1:00 PM34 °FChilly.1 mph94%29.58 "HgN/A
12:00 PM34 °FFog.1 mph96%29.57 "HgN/A
11:00 AM33 °FFog.1 mph96%29.56 "HgN/A
10:00 AM33 °FChilly.1 mph96%29.54 "HgN/A
Weather by CustomWeather, © 2016

See weather overviewHow to use our weather pages